• In Deutschland
  • Länderverzeichnis
  • Für 7 Tage
  • Wassertemperatur
  • Satellitenkarten
  • Wetterkarte
  • Widgets
  • user-avatar
    Anmelden

    Stündliche Wetter Gmund

    Heute, 22 Januar, Montag

    Zeit Temperatur Niederschläge Wind Luftdruck Luftfeuchtigkeit
    00:00 -7°C° 0,2 mm 1 m/S 670 mmHg 91%
    01:00 -6°C° 0 mm 2 m/S 669 mmHg 89%
    02:00 -5°C° 1,2 mm 2 m/S 669 mmHg 92%
    03:00 -5°C° 1,2 mm 2 m/S 668 mmHg 94%
    04:00 -5°C° 1,2 mm 2 m/S 668 mmHg 96%
    05:00 -4°C° 1,9 mm 2 m/S 668 mmHg 96%
    06:00 -3°C° 1,9 mm 2 m/S 667 mmHg 96%
    07:00 -3°C° 1,9 mm 2 m/S 667 mmHg 96%
    08:00 -2°C° 1,3 mm 2 m/S 667 mmHg 96%
    09:00 -1°C° 1,3 mm 2 m/S 667 mmHg 96%
    10:00 -1°C° 1,3 mm 2 m/S 667 mmHg 97%
    11:00 +1°C° 1,3 mm 2 m/S 667 mmHg 97%
    12:00 +1°C° 1,3 mm 2 m/S 667 mmHg 98%
    13:00 -1°C° 0 mm 4 m/S 666 mmHg 98%
    14:00 0°C° 1,8 mm 3 m/S 666 mmHg 98%
    15:00 +1°C° 1,8 mm 3 m/S 666 mmHg 99%
    16:00 +2°C° 1,8 mm 2 m/S 666 mmHg 99%
    17:00 +2°C° 2,8 mm 2 m/S 666 mmHg 99%
    18:00 +2°C° 2,8 mm 1 m/S 666 mmHg 99%
    19:00 +2°C° 2,8 mm 1 m/S 666 mmHg 98%
    20:00 +2°C° 1,9 mm 1 m/S 667 mmHg 99%
    21:00 +1°C° 1,9 mm 2 m/S 668 mmHg 99%
    22:00 +1°C° 1,9 mm 2 m/S 669 mmHg 99%
    23:00 +1°C° 0,7 mm 2 m/S 670 mmHg 99%

    Morgen, 23 Januar, Dienstag

    Zeit Temperatur Niederschläge Wind Luftdruck Luftfeuchtigkeit
    00:00 +1°C° 0,7 mm 2 m/S 670 mmHg 99%
    01:00 +1°C° 0,7 mm 2 m/S 671 mmHg 99%
    02:00 -1°C° 0,4 mm 2 m/S 672 mmHg 98%
    03:00 -1°C° 0,4 mm 2 m/S 672 mmHg 98%
    04:00 -1°C° 0,4 mm 2 m/S 673 mmHg 98%
    05:00 -1°C° 0,4 mm 2 m/S 673 mmHg 97%
    06:00 -1°C° 0,4 mm 2 m/S 674 mmHg 96%
    07:00 -1°C° 0,4 mm 2 m/S 674 mmHg 96%
    08:00 -1°C° 0,3 mm 2 m/S 675 mmHg 96%
    09:00 -1°C° 0,3 mm 2 m/S 676 mmHg 96%
    10:00 -1°C° 0,3 mm 2 m/S 676 mmHg 96%
    11:00 +1°C° 0 mm 2 m/S 676 mmHg 95%
    12:00 +1°C° 0 mm 2 m/S 677 mmHg 95%
    13:00 +3°C° 0 mm 1 m/S 677 mmHg 94%
    14:00 +3°C° 0 mm 1 m/S 677 mmHg 94%
    15:00 +2°C° 0 mm 1 m/S 677 mmHg 95%
    16:00 +2°C° 0 mm 1 m/S 677 mmHg 95%
    17:00 +1°C° 0 mm 1 m/S 677 mmHg 92%
    18:00 0°C° 0 mm 1 m/S 677 mmHg 89%
    19:00 -3°C° 0 mm 2 m/S 677 mmHg 86%
    20:00 -3°C° 0 mm 2 m/S 677 mmHg 84%
    21:00 -4°C° 0 mm 2 m/S 677 mmHg 81%
    22:00 -4°C° 0 mm 2 m/S 677 mmHg 79%
    23:00 -3°C° 0 mm 2 m/S 678 mmHg 78%

    übermorgen, 24 Januar, Mittwoch

    Zeit Temperatur Niederschläge Wind Luftdruck Luftfeuchtigkeit
    00:00 -3°C° 0 mm 2 m/S 678 mmHg 77%
    01:00 -2°C° 0 mm 2 m/S 678 mmHg 76%
    02:00 -2°C° 0,1 mm 2 m/S 678 mmHg 77%
    03:00 -1°C° 0,1 mm 2 m/S 678 mmHg 77%
    04:00 +1°C° 0,1 mm 2 m/S 678 mmHg 78%
    05:00 +1°C° 0 mm 2 m/S 678 mmHg 77%
    06:00 -1°C° 0 mm 2 m/S 678 mmHg 77%
    07:00 -1°C° 0 mm 2 m/S 678 mmHg 76%
    08:00 +1°C° 0 mm 2 m/S 678 mmHg 79%
    09:00 +2°C° 0 mm 2 m/S 678 mmHg 83%
    10:00 +4°C° 0 mm 1 m/S 678 mmHg 86%
    11:00 +5°C° 0 mm 1 m/S 678 mmHg 87%
    12:00 +5°C° 0 mm 1 m/S 678 mmHg 89%
    13:00 +6°C° 0 mm 1 m/S 677 mmHg 91%
    14:00 +6°C° 0 mm 1 m/S 677 mmHg 92%
    15:00 +5°C° 0 mm 1 m/S 677 mmHg 94%
    16:00 +3°C° 0 mm 2 m/S 676 mmHg 95%
    17:00 +2°C° 0 mm 2 m/S 676 mmHg 92%
    18:00 +2°C° 0 mm 2 m/S 676 mmHg 89%
    19:00 +1°C° 0 mm 2 m/S 676 mmHg 86%
    20:00 +1°C° 0 mm 2 m/S 676 mmHg 84%
    21:00 -1°C° 0 mm 2 m/S 676 mmHg 82%
    22:00 -1°C° 0 mm 2 m/S 676 mmHg 80%
    23:00 -1°C° 0 mm 2 m/S 676 mmHg 79%

    25 Januar, Donnerstag

    Zeit Temperatur Niederschläge Wind Luftdruck Luftfeuchtigkeit
    00:00 -1°C° 0 mm 2 m/S 675 mmHg 78%
    01:00 -1°C° 0 mm 2 m/S 675 mmHg 77%
    02:00 -1°C° 0 mm 2 m/S 675 mmHg 77%
    03:00 -1°C° 0 mm 2 m/S 675 mmHg 76%
    04:00 -1°C° 0 mm 2 m/S 675 mmHg 76%
    05:00 -1°C° 0 mm 2 m/S 674 mmHg 75%
    06:00 -1°C° 0 mm 2 m/S 674 mmHg 75%
    07:00 -1°C° 0 mm 2 m/S 674 mmHg 75%
    08:00 +1°C° 0 mm 2 m/S 674 mmHg 76%
    09:00 +2°C° 0 mm 2 m/S 674 mmHg 77%
    10:00 +3°C° 0 mm 2 m/S 674 mmHg 78%
    11:00 +3°C° 0 mm 2 m/S 673 mmHg 80%
    12:00 +4°C° 0 mm 2 m/S 673 mmHg 82%
    13:00 +6°C° 0 mm 1 m/S 672 mmHg 83%
    14:00 +6°C° 0 mm 1 m/S 672 mmHg 85%
    15:00 +4°C° 0 mm 2 m/S 672 mmHg 86%
    16:00 +4°C° 0 mm 2 m/S 671 mmHg 87%
    17:00 +4°C° 0 mm 1 m/S 671 mmHg 86%
    18:00 +3°C° 0 mm 1 m/S 671 mmHg 85%
    19:00 +2°C° 0 mm 1 m/S 671 mmHg 84%
    20:00 +1°C° 0 mm 2 m/S 671 mmHg 84%
    21:00 +1°C° 0 mm 2 m/S 671 mmHg 84%
    22:00 -1°C° 0 mm 2 m/S 671 mmHg 84%
    23:00 -1°C° 0 mm 2 m/S 671 mmHg 84%

    26 Januar, Freitag

    Zeit Temperatur Niederschläge Wind Luftdruck Luftfeuchtigkeit
    00:00 -1°C° 0 mm 2 m/S 670 mmHg 84%
    01:00 -1°C° 0 mm 2 m/S 670 mmHg 83%
    02:00 -1°C° 0 mm 2 m/S 670 mmHg 83%
    03:00 -1°C° 0 mm 2 m/S 669 mmHg 83%
    04:00 -1°C° 0 mm 2 m/S 669 mmHg 83%
    05:00 +1°C° 0 mm 1 m/S 669 mmHg 84%
    06:00 0°C° 0 mm 1 m/S 669 mmHg 85%
    07:00 0°C° 0 mm 1 m/S 669 mmHg 85%
    08:00 +1°C° 0 mm 1 m/S 669 mmHg 85%
    09:00 +2°C° 0 mm 1 m/S 669 mmHg 85%
    10:00 +2°C° 0 mm 1 m/S 669 mmHg 86%
    11:00 +3°C° 0 mm 1 m/S 669 mmHg 86%
    12:00 +4°C° 0 mm 1 m/S 669 mmHg 86%
    13:00 +4°C° 0 mm 2 m/S 669 mmHg 87%
    14:00 +3°C° 0 mm 2 m/S 669 mmHg 89%
    15:00 +2°C° 0 mm 2 m/S 670 mmHg 91%
    16:00 +2°C° 0 mm 2 m/S 670 mmHg 93%
    17:00 +1°C° 0,4 mm 2 m/S 670 mmHg 93%
    18:00 +1°C° 0,4 mm 2 m/S 671 mmHg 94%
    19:00 -1°C° 0,4 mm 2 m/S 671 mmHg 95%
    20:00 -1°C° 0,9 mm 2 m/S 672 mmHg 95%
    21:00 -1°C° 0,9 mm 2 m/S 672 mmHg 95%
    22:00 -1°C° 0,9 mm 2 m/S 672 mmHg 95%
    23:00 -1°C° 1 mm 2 m/S 673 mmHg 96%

    27 Januar, Samstag

    Zeit Temperatur Niederschläge Wind Luftdruck Luftfeuchtigkeit
    00:00 -1°C° 1 mm 2 m/S 673 mmHg 96%
    01:00 +1°C° 1 mm 1 m/S 674 mmHg 96%
    02:00 0°C° 0,5 mm 1 m/S 674 mmHg 96%
    03:00 0°C° 0,5 mm 1 m/S 674 mmHg 97%
    04:00 0°C° 0,5 mm 1 m/S 674 mmHg 97%
    05:00 0°C° 0,3 mm 1 m/S 675 mmHg 97%
    06:00 -2°C° 0,3 mm 0 m/S 675 mmHg 96%
    07:00 -2°C° 0,3 mm 0 m/S 675 mmHg 96%
    08:00 -1°C° 0,1 mm 0 m/S 676 mmHg 95%
    09:00 0°C° 0,1 mm 1 m/S 677 mmHg 94%
    10:00 +1°C° 0,1 mm 1 m/S 677 mmHg 93%
    11:00 +1°C° 0,1 mm 1 m/S 678 mmHg 91%
    12:00 +1°C° 0,1 mm 1 m/S 678 mmHg 90%
    13:00 +2°C° 0,1 mm 1 m/S 678 mmHg 89%
    14:00 +2°C° 0,1 mm 1 m/S 678 mmHg 89%
    15:00 +2°C° 0,1 mm 1 m/S 679 mmHg 90%
    16:00 +1°C° 0,1 mm 1 m/S 679 mmHg 91%
    17:00 +1°C° 0 mm 1 m/S 679 mmHg 92%
    18:00 0°C° 0 mm 1 m/S 680 mmHg 93%
    19:00 -1°C° 0 mm 1 m/S 680 mmHg 94%
    20:00 -1°C° 0 mm 1 m/S 680 mmHg 94%
    21:00 -3°C° 0 mm 0 m/S 680 mmHg 94%
    22:00 -3°C° 0 mm 0 m/S 681 mmHg 94%
    23:00 -3°C° 0 mm 0 m/S 681 mmHg 94%
    Mehr zeigen